Flag for Saudi Arabia Weather past 2 weeks in Qatif, Saudi Arabia

Now
86 °F

Clear.


Feels Like: 86 °F
Forecast: 80 / 104 °F
Wind: 6 mph from Southeast

Location: King Fahd International Airport

Current Time: May 23, 2015 at 4:53:32 AM

Latest Report: May 23, 2015 at 4:00 AM


Visibility: 10 mi

Pressure: 29.65 "Hg

Humidity: 43%

Dew point: 61 °F

Location of QatifLocation

Historic Weather in Qatif — Graph

°F

Qatif temperature yesterday

Maximum temperature yesterday: 115 °F (at 2:00 PM)
Minimum temperature yesterday: 79 °F (at 4:00 AM)
Average temperature yesterday: 97 °F

Past Weeks' High & Low Weather Summary

 TemperatureHumidityPressure
High115 °F (May 22, 2:00 PM)58% (May 12, 3:00 AM)29.86 "Hg (May 12, 3:00 AM)
Low75 °F (May 18, 4:00 AM)5% (May 20, 2:00 PM)29.59 "Hg (May 9, 3:00 PM)
Average92 °F22%29.73 "Hg
* Reported May 8 4:00 AM — May 23 4:00 AM, Qatif, Weather by CustomWeather, © 2015

Note: Actual official high and low records may vary slightly from our data, if they occured in-between our weather recording intervals... More about our weather records

Advertising

Qatif weather history for previous 24 hours

 ConditionsComfort  
Time TempWeatherWind HumidityBarometerVisibility
4:00 AM
Sat, May 23
86 °FClear.6 mph43%29.65 "Hg10 mi
3:00 AM86 °FClear.3 mph40%29.65 "Hg10 mi
2:00 AM88 °FClear.6 mph43%29.65 "Hg10 mi
1:00 AM88 °FClear.2 mph49%29.65 "Hg10 mi
12:00 AM90 °FClear.10 mph43%29.65 "Hg10 mi
11:00 PM
Fri, May 22
91 °FClear.13 mph38%29.65 "Hg10 mi
10:00 PM95 °FClear.8 mph19%29.65 "Hg10 mi
9:00 PM97 °FClear.8 mph18%29.62 "Hg10 mi
8:00 PM99 °FClear.10 mph16%29.62 "Hg10 mi
7:00 PM102 °FClear.9 mph12%29.59 "Hg5 mi
6:00 PM106 °FClear.14 mph11%29.59 "Hg5 mi
5:00 PM109 °FSunny.18 mph8%29.59 "Hg10 mi
4:00 PM113 °FSunny.17 mph7%29.59 "Hg10 mi
3:00 PM113 °FSunny.7 mph6%29.62 "Hg10 mi
2:00 PM115 °FSunny.9 mph5%29.62 "Hg10 mi
1:00 PM113 °FSunny.10 mph6%29.65 "Hg10 mi
12:00 PM111 °FSunny.9 mph6%29.68 "Hg10 mi
11:00 AM109 °FSunny.7 mph8%29.71 "Hg10 mi
10:00 AM106 °FSunny.9 mph10%29.71 "Hg10 mi
9:00 AM99 °FSunny.9 mph14%29.71 "Hg10 mi
8:00 AM91 °FSunny.7 mph26%29.71 "Hg10 mi
7:00 AM84 °FSunny.5 mph35%29.68 "Hg10 mi
6:00 AM81 °FSunny.7 mph37%29.68 "Hg10 mi
5:00 AM79 °FSunny.7 mph37%29.65 "Hg10 mi
4:00 AM79 °FClear.6 mph37%29.65 "Hg10 mi
Weather by CustomWeather, © 2015

See weather overviewHow to use our weather pages